[[{"header":{"parameterUnit":"m.s-1","parameterCategory":1,"la1":30.2991,"la2":30.254,"lo1":-89.0895,"lo2":-89.0444,"dy":0.0017,"dx":0.0017,"nx":28,"ny":28,"refTime":"2024-12-18T03:00:00:Z","depth":0,"parameterNumber":2,"parameterNumberName":"U-component_of_WINDS"},"data":[0,0,0,0,0,0,0,0,0,0,0,0,0,0,0,0,0,0,0,0,0,0,0,0,0,0,0,0,0,0,0,0,0,0,0,0,0,0,0,0,0,0,0,0,0,0,0,0,0,0,0,0,0,0,0,0,0,0,2.6308,2.631,0,2.6444,2.6446,2.6447,2.6477,2.6476,2.6475,2.6474,2.6616,2.6621,2.6625,0,0,0,0,0,0,0,0,0,0,0,0,0,2.6078,2.6082,2.6308,2.631,2.6311,2.6444,2.6446,2.6448,2.6477,2.6476,2.6475,2.6474,2.6615,2.662,2.6626,0,0,0,0,0,0,0,0,0,0,0,0,0,2.6192,2.6083,2.6308,2.6342,2.6347,2.6443,2.6446,2.6448,2.6478,2.6476,2.6475,2.6473,2.6613,2.662,2.6627,2.6699,0,0,2.6648,2.6651,0,0,0,0,0,0,0,0,2.6186,2.62,2.6335,2.634,2.6345,2.6442,2.6417,2.6532,2.6478,2.6428,2.6474,2.6473,2.656,2.6571,2.66,2.6706,2.6712,2.6649,2.6653,2.6656,2.6658,0,0,0,0,0,0,0,2.6178,2.6195,2.6362,2.6337,2.6343,2.6352,2.6367,2.6439,2.6501,2.6432,2.6435,2.645,2.6562,2.6593,2.6603,2.6714,2.6649,2.6655,2.6659,2.6662,2.6889,2.6891,0,0,0,0,0,0,2.6163,2.6188,2.6358,2.6366,2.626,2.6357,2.6374,2.6413,2.65,2.6512,2.6451,2.6451,2.6582,2.6595,2.6608,2.6701,2.6656,2.6663,2.6667,2.6887,2.689,2.6891,0,0,0,0,0,0,2.6158,2.6178,2.6352,2.6278,2.6301,2.6363,2.6406,2.6416,2.6447,2.6514,2.6526,2.6471,2.6581,2.6599,2.6677,2.6706,2.6666,2.6672,2.6885,2.6888,2.6891,2.6885,0,0,0,0,0,0,2.6151,2.6176,2.6203,2.6278,2.6304,2.6417,2.6408,2.642,2.6459,2.646,2.6536,2.6547,2.6581,2.6666,2.6684,2.6715,2.6678,2.6883,2.6886,2.689,2.6883,2.6887,2.6891,0,0,0,0,0,2.6143,2.6197,2.6205,2.6225,2.634,2.6419,2.6434,2.6471,2.6461,2.649,2.6533,2.6545,2.67,2.6674,2.6694,2.6728,2.6881,2.6885,2.6889,2.6881,2.6886,2.689,0,0,0,0,0,0,2.6124,2.6207,2.6217,2.6296,2.635,2.6424,2.6461,2.6475,2.6534,2.6533,2.6577,2.6594,2.667,2.6707,2.6676,2.6804,2.679,2.6799,2.6777,2.6782,2.6786,2.6776,2.6683,0,0,0,0,0,2.6129,2.6185,2.6255,2.6318,2.6345,2.6398,2.6434,2.6458,2.6516,2.6539,2.6588,2.6645,2.6707,2.6747,2.6807,2.6888,2.6906,2.6921,2.6925,2.6928,2.6935,2.6982,2.699,2.6905,2.6905,2.6905,0,0,2.614,2.6193,2.6225,2.6316,2.6361,2.6419,2.6417,2.6479,2.6523,2.6549,2.6626,2.6664,2.6731,2.6811,2.6849,2.6844,2.6962,2.6933,2.6935,2.6941,2.6987,2.6995,2.7002,2.6908,2.6907,2.6907,0,0,2.6191,2.6235,2.6293,2.6338,2.6406,2.6441,2.6455,2.6527,2.6553,2.6631,2.6652,2.6705,2.681,2.6857,2.6895,2.6964,2.6977,2.6982,2.7003,2.7049,2.7055,2.7061,2.7087,2.7096,2.6989,2.6989,2.6989,0,2.6196,2.6284,2.6321,2.6382,2.6422,2.6448,2.6508,2.655,2.6634,2.6661,2.6655,2.6788,2.6834,2.6926,2.6943,2.6972,2.6991,2.6974,2.7051,2.7058,2.7064,2.7089,2.7099,2.6989,2.6989,2.6989,2.6989,0,2.6288,2.6349,2.6388,2.6468,2.6512,2.6572,2.662,2.666,2.6681,2.6717,2.6797,2.6854,2.6926,2.695,2.6971,2.7046,2.7041,2.7042,2.703,2.7072,2.7096,2.7106,2.6989,2.6989,2.6989,2.6989,0,0,2.633,2.643,2.6444,2.6481,2.6558,2.6606,2.6668,2.6739,2.6773,2.6831,2.6885,2.6973,2.6975,2.7018,2.7044,2.7084,2.7136,2.708,2.7083,2.709,2.7224,2.7223,2.7233,2.7145,2.7147,2.7149,2.7219,0,2.639,2.6501,2.6537,2.6629,2.6687,2.6712,2.6766,2.682,2.6856,2.6911,2.6951,2.7013,2.701,2.7037,2.7077,2.7121,2.7164,2.7117,2.7197,2.72,2.718,2.7246,2.7245,2.7308,2.7228,2.723,2.7231,0,2.6476,2.6534,2.6631,2.6702,2.6727,2.6775,2.6844,2.6895,2.6957,2.6981,2.7028,2.7052,2.7119,2.7102,2.7196,2.7163,2.7199,2.7225,2.7229,2.7238,2.7218,2.7258,2.7329,2.7339,2.7246,2.7245,2.7244,0,2.6498,2.6601,2.6673,2.6704,2.6787,2.6821,2.6857,2.6918,2.6958,2.7018,2.7045,2.7112,2.715,2.7202,2.7243,2.7227,2.7334,2.732,2.7357,2.7356,2.7378,2.7376,2.7457,2.74,2.7399,2.7399,2.7399,0,2.6562,2.6621,2.6684,2.6728,2.6796,2.6837,2.6903,2.6942,2.6995,2.7049,2.7075,2.7125,2.7176,2.7233,2.7266,2.734,2.7356,2.7378,2.7386,2.7376,2.7373,2.74,2.7397,2.7402,2.7401,2.7401,2.74,0,2.6598,2.6643,2.6723,2.6796,2.6816,2.6862,2.6925,2.697,2.7007,2.7074,2.7093,2.7151,2.722,2.7266,2.7354,2.7376,2.7456,2.7463,2.7435,2.7439,2.7473,2.747,2.7574,2.759,2.7521,2.7522,2.7522,0,2.6637,2.6683,2.676,2.6798,2.6834,2.6894,2.6935,2.6978,2.702,2.7095,2.7131,2.7201,2.7259,2.7368,2.7419,2.7487,2.7496,2.7528,2.7507,2.7495,2.7498,2.7495,2.75,2.7532,2.7532,2.7533,2.7533,0,2.6701,2.672,2.6778,2.6845,2.6893,2.6948,2.7002,2.7031,2.7084,2.7131,2.72,2.7246,2.7335,2.7405,2.7478,2.7517,2.7534,2.7539,2.7551,2.7542,2.7524,2.7535,2.7445,2.7537,2.7536,2.7536,2.7536,2.7536,2.674,2.6783,2.6844,2.6908,2.6954,2.7004,2.705,2.7093,2.7152,2.7227,2.7249,2.7322,2.7385,2.7484,2.7524,2.7583,2.758,2.7597,2.7602,2.7606,2.7606,2.7514,2.7596,2.7596,2.7596,2.7596,2.7596,0,2.6807,2.6847,2.6906,2.6981,2.7032,2.7043,2.7104,2.7146,2.721,2.7266,2.7323,2.7404,2.7472,2.7528,2.7599,2.7635,2.7645,2.7652,2.765,2.7659,2.7604,2.7587,2.7643,2.7643,2.7643,2.7643,2.7643,2.7643,2.6847,2.692,2.6947,2.7043,2.7084,2.7155,2.7189,2.7237,2.7281,2.737,2.7427,2.7462,2.7519,2.7594,2.7658,2.7673,2.7698,2.7704,2.772,2.7668,2.7663,2.7658,2.7642,2.7708,2.7708,2.7771,2.7771,2.7772]},{"header":{"parameterUnit":"m.s-1","parameterCategory":1,"la1":30.2991,"la2":30.254,"lo1":-89.0895,"lo2":-89.0444,"dy":0.0017,"dx":0.0017,"nx":28,"ny":28,"refTime":"2024-12-18T03:00:00:Z","depth":0,"parameterNumber":3,"parameterNumberName":"V-component_of_WINDS"},"data":[0,0,0,0,0,0,0,0,0,0,0,0,0,0,0,0,0,0,0,0,0,0,0,0,0,0,0,0,0,0,0,0,0,0,0,0,0,0,0,0,0,0,0,0,0,0,0,0,0,0,0,0,0,0,0,0,0,0,-1.9049,-1.9049,0,-1.9084,-1.9084,-1.9084,-1.9114,-1.9114,-1.9114,-1.9115,-1.9149,-1.9149,-1.915,0,0,0,0,0,0,0,0,0,0,0,0,0,-1.9006,-1.9007,-1.9049,-1.9049,-1.905,-1.9083,-1.9084,-1.9084,-1.9114,-1.9114,-1.9115,-1.9115,-1.9148,-1.9149,-1.915,0,0,0,0,0,0,0,0,0,0,0,0,0,-1.9031,-1.9007,-1.9049,-1.9068,-1.9071,-1.9083,-1.9084,-1.9085,-1.9114,-1.9114,-1.9115,-1.9115,-1.9148,-1.9149,-1.915,-1.9146,0,0,-1.9153,-1.9153,0,0,0,0,0,0,0,0,-1.903,-1.9033,-1.9065,-1.9067,-1.9069,-1.9095,-1.9081,-1.9105,-1.9114,-1.9097,-1.9115,-1.9115,-1.913,-1.9133,-1.9138,-1.9147,-1.9149,-1.9153,-1.9153,-1.9154,-1.9154,0,0,0,0,0,0,0,-1.9028,-1.9031,-1.9062,-1.9065,-1.9068,-1.9075,-1.9079,-1.9086,-1.911,-1.9099,-1.9101,-1.9105,-1.9132,-1.9137,-1.9139,-1.9149,-1.9153,-1.9154,-1.9154,-1.9154,-1.9156,-1.9156,0,0,0,0,0,0,-1.9023,-1.903,-1.9061,-1.9064,-1.905,-1.9075,-1.908,-1.9086,-1.9111,-1.9115,-1.9104,-1.9106,-1.9135,-1.9138,-1.914,-1.9137,-1.9154,-1.9155,-1.9155,-1.9157,-1.9156,-1.9156,0,0,0,0,0,0,-1.9022,-1.9026,-1.906,-1.9047,-1.9052,-1.9075,-1.9082,-1.9087,-1.9092,-1.9115,-1.9119,-1.9106,-1.9136,-1.9139,-1.9144,-1.9138,-1.9155,-1.9156,-1.9157,-1.9157,-1.9156,-1.913,0,0,0,0,0,0,-1.9021,-1.9025,-1.9024,-1.9047,-1.9053,-1.9064,-1.9082,-1.9087,-1.9094,-1.9096,-1.9117,-1.9121,-1.9136,-1.9143,-1.9145,-1.914,-1.9156,-1.9158,-1.9157,-1.9156,-1.9131,-1.9128,-1.9125,0,0,0,0,0,-1.9019,-1.9015,-1.9024,-1.9028,-1.9052,-1.9063,-1.9066,-1.9085,-1.9093,-1.9092,-1.9107,-1.912,-1.9139,-1.9143,-1.9146,-1.9141,-1.9158,-1.9157,-1.9156,-1.9132,-1.9129,-1.9125,0,0,0,0,0,0,-1.8991,-1.9019,-1.9029,-1.9032,-1.9045,-1.9068,-1.9068,-1.908,-1.9091,-1.9093,-1.9115,-1.9119,-1.9122,-1.9132,-1.9136,-1.9138,-1.915,-1.915,-1.9131,-1.9128,-1.9125,-1.9122,-1.9157,0,0,0,0,0,-1.8985,-1.8992,-1.9016,-1.9017,-1.9023,-1.9044,-1.9049,-1.9062,-1.9077,-1.9082,-1.9097,-1.911,-1.9119,-1.9124,-1.9133,-1.9133,-1.9137,-1.9131,-1.9128,-1.9125,-1.9125,-1.9125,-1.9122,-1.9152,-1.9152,-1.9152,0,0,-1.8973,-1.8989,-1.8992,-1.9011,-1.9023,-1.903,-1.9048,-1.9055,-1.906,-1.9083,-1.9089,-1.91,-1.9116,-1.9118,-1.912,-1.9127,-1.9117,-1.9124,-1.9122,-1.9122,-1.9124,-1.9121,-1.9118,-1.9151,-1.9151,-1.9152,0,0,-1.8955,-1.8968,-1.8969,-1.8981,-1.8998,-1.9012,-1.9013,-1.9034,-1.9042,-1.9049,-1.9066,-1.9072,-1.9087,-1.9097,-1.9104,-1.9089,-1.9102,-1.9092,-1.9077,-1.9077,-1.9075,-1.9073,-1.9067,-1.9065,-1.9091,-1.9091,-1.9091,0,-1.8937,-1.8949,-1.8969,-1.8974,-1.8981,-1.9003,-1.9005,-1.9015,-1.9034,-1.9039,-1.9046,-1.9065,-1.9077,-1.9082,-1.9078,-1.9083,-1.9084,-1.9089,-1.9073,-1.9072,-1.907,-1.9065,-1.9063,-1.9089,-1.9089,-1.909,-1.909,0,-1.8926,-1.8934,-1.8933,-1.8951,-1.8959,-1.8962,-1.8982,-1.8987,-1.9,-1.9013,-1.9018,-1.9034,-1.9046,-1.9048,-1.906,-1.9055,-1.9059,-1.9069,-1.9082,-1.9065,-1.9061,-1.9059,-1.9087,-1.9088,-1.9088,-1.9089,0,0,-1.8891,-1.8921,-1.892,-1.8929,-1.8949,-1.8955,-1.8959,-1.8972,-1.8976,-1.8988,-1.8992,-1.9004,-1.9014,-1.9022,-1.9035,-1.9035,-1.9022,-1.9046,-1.9046,-1.9041,-1.9017,-1.9008,-1.9006,-1.903,-1.903,-1.903,-1.9015,0,-1.8876,-1.8885,-1.8903,-1.8906,-1.8913,-1.8934,-1.8937,-1.895,-1.8962,-1.8969,-1.8982,-1.899,-1.9003,-1.9008,-1.9009,-1.9023,-1.9017,-1.9024,-1.9034,-1.9034,-1.9029,-1.9004,-1.8995,-1.898,-1.9014,-1.9013,-1.9013,0,-1.886,-1.8871,-1.8875,-1.8895,-1.8899,-1.8901,-1.8914,-1.8921,-1.8936,-1.8945,-1.8953,-1.8968,-1.8973,-1.8985,-1.8991,-1.8996,-1.9001,-1.9008,-1.9008,-1.901,-1.9022,-1.9004,-1.8976,-1.8974,-1.9011,-1.9011,-1.9011,0,-1.8834,-1.885,-1.8854,-1.8861,-1.8884,-1.8886,-1.8896,-1.8911,-1.8917,-1.8928,-1.8933,-1.8944,-1.895,-1.8958,-1.8975,-1.8982,-1.898,-1.8993,-1.8987,-1.8987,-1.8986,-1.8986,-1.8958,-1.8989,-1.8989,-1.8989,-1.8989,0,-1.8815,-1.8816,-1.8843,-1.8846,-1.8848,-1.8868,-1.8869,-1.8881,-1.8894,-1.8899,-1.8918,-1.8922,-1.8944,-1.895,-1.8964,-1.8967,-1.897,-1.8977,-1.898,-1.8975,-1.8974,-1.8979,-1.898,-1.8988,-1.8989,-1.8989,-1.8989,0,-1.8786,-1.8804,-1.881,-1.8832,-1.8837,-1.8838,-1.8856,-1.8859,-1.8872,-1.8878,-1.8881,-1.8901,-1.891,-1.8928,-1.8941,-1.895,-1.8951,-1.8957,-1.8946,-1.8948,-1.8941,-1.8941,-1.8915,-1.8912,-1.8945,-1.8944,-1.8944,0,-1.8773,-1.8775,-1.8796,-1.8801,-1.881,-1.8818,-1.8824,-1.8844,-1.885,-1.8867,-1.8868,-1.8878,-1.8887,-1.89,-1.8916,-1.8926,-1.8933,-1.8923,-1.8934,-1.8929,-1.8933,-1.8932,-1.8932,-1.892,-1.892,-1.8919,-1.8919,0,-1.8748,-1.8757,-1.8766,-1.8778,-1.8785,-1.8795,-1.8807,-1.8809,-1.8831,-1.8837,-1.8846,-1.8854,-1.8867,-1.8877,-1.889,-1.8899,-1.8913,-1.8915,-1.8914,-1.8909,-1.8903,-1.8906,-1.8939,-1.8916,-1.8916,-1.8916,-1.8917,-1.8917,-1.8727,-1.8729,-1.8745,-1.8754,-1.8764,-1.8774,-1.8778,-1.8792,-1.88,-1.8813,-1.8824,-1.8832,-1.8846,-1.8865,-1.8873,-1.888,-1.8887,-1.8885,-1.8885,-1.8884,-1.8882,-1.8902,-1.8882,-1.8882,-1.8882,-1.8883,-1.8883,0,-1.8703,-1.8714,-1.8722,-1.8737,-1.8744,-1.8756,-1.8769,-1.8774,-1.8781,-1.8793,-1.8802,-1.8812,-1.8822,-1.8838,-1.8849,-1.8851,-1.8858,-1.8853,-1.8853,-1.8855,-1.8876,-1.8875,-1.8848,-1.8848,-1.8848,-1.8848,-1.8848,-1.8848,-1.8691,-1.8695,-1.8706,-1.8715,-1.8726,-1.8735,-1.8741,-1.875,-1.876,-1.8771,-1.8779,-1.8789,-1.8803,-1.8815,-1.8824,-1.8829,-1.8832,-1.8826,-1.8832,-1.8851,-1.8854,-1.8857,-1.8857,-1.8826,-1.8826,-1.8811,-1.8811,-1.8811]}]]